• In Sweden
  • List of Countries
  • For 7 days
  • Water Temperature
  • Satellite Maps
  • Weather Map
  • Weather Widgets
  • user-avatar
    Login

    Hourly Weather Smolan

    Today, 23 September, Sunday

    Time Temperature Precipitation Wind Pressure Humidity
    00:00 +14°C° 0 mm 2 mps 659 mmHg 54%
    01:00 +14°C° 0 mm 2 mps 659 mmHg 53%
    02:00 +14°C° 0 mm 2 mps 659 mmHg 52%
    03:00 +14°C° 0 mm 2 mps 659 mmHg 53%
    04:00 +13°C° 0 mm 2 mps 659 mmHg 53%
    05:00 +13°C° 0 mm 2 mps 659 mmHg 54%
    06:00 +15°C° 0 mm 2 mps 659 mmHg 51%
    07:00 +16°C° 0 mm 1 mps 660 mmHg 49%
    08:00 +18°C° 0 mm 2 mps 660 mmHg 44%
    09:00 +20°C° 0 mm 2 mps 661 mmHg 40%
    10:00 +23°C° 0 mm 2 mps 662 mmHg 36%
    11:00 +25°C° 0 mm 2 mps 662 mmHg 33%
    12:00 +25°C° 0 mm 2 mps 662 mmHg 32%
    13:00 +26°C° 0 mm 2 mps 662 mmHg 31%
    14:00 +26°C° 0 mm 2 mps 662 mmHg 34%
    15:00 +25°C° 0 mm 2 mps 662 mmHg 36%
    16:00 +25°C° 0 mm 2 mps 661 mmHg 38%
    17:00 +24°C° 0 mm 2 mps 661 mmHg 39%
    18:00 +21°C° 0 mm 2 mps 660 mmHg 46%
    19:00 +20°C° 0 mm 1 mps 660 mmHg 52%
    20:00 +16°C° 0 mm 1 mps 659 mmHg 58%
    21:00 +16°C° 0 mm 1 mps 659 mmHg 59%
    22:00 +16°C° 0 mm 1 mps 659 mmHg 61%
    23:00 +15°C° 0 mm 1 mps 659 mmHg 62%

    Tomorrow, 24 September, Monday

    Time Temperature Precipitation Wind Pressure Humidity
    00:00 +15°C° 0 mm 1 mps 659 mmHg 62%
    01:00 +14°C° 0 mm 1 mps 658 mmHg 63%
    02:00 +14°C° 0 mm 1 mps 658 mmHg 63%
    03:00 +14°C° 0 mm 1 mps 657 mmHg 63%
    04:00 +14°C° 0 mm 1 mps 657 mmHg 63%
    05:00 +13°C° 0 mm 1 mps 657 mmHg 64%
    06:00 +15°C° 0 mm 1 mps 657 mmHg 60%
    07:00 +16°C° 0 mm 1 mps 657 mmHg 57%
    08:00 +19°C° 0 mm 1 mps 657 mmHg 53%
    09:00 +20°C° 0 mm 2 mps 658 mmHg 47%
    10:00 +23°C° 0 mm 2 mps 658 mmHg 40%
    11:00 +25°C° 0 mm 3 mps 658 mmHg 33%
    12:00 +26°C° 0 mm 3 mps 658 mmHg 32%
    13:00 +27°C° 0 mm 3 mps 658 mmHg 31%
    14:00 +27°C° 0 mm 3 mps 658 mmHg 29%
    15:00 +26°C° 0 mm 3 mps 658 mmHg 32%
    16:00 +25°C° 0 mm 3 mps 658 mmHg 35%
    17:00 +25°C° 0 mm 3 mps 658 mmHg 38%
    18:00 +21°C° 0 mm 3 mps 658 mmHg 46%
    19:00 +18°C° 0 mm 3 mps 658 mmHg 53%
    20:00 +14°C° 0 mm 3 mps 658 mmHg 61%
    21:00 +13°C° 0 mm 3 mps 658 mmHg 62%
    22:00 +12°C° 0 mm 3 mps 659 mmHg 63%
    23:00 +11°C° 0 mm 3 mps 659 mmHg 63%

    Day after tomorrow, 25 September, Tuesday

    Time Temperature Precipitation Wind Pressure Humidity
    00:00 +10°C° 0 mm 3 mps 659 mmHg 63%
    01:00 +10°C° 0 mm 3 mps 659 mmHg 63%
    02:00 +9°C° 0 mm 3 mps 659 mmHg 62%
    03:00 +9°C° 0 mm 3 mps 660 mmHg 62%
    04:00 +7°C° 0 mm 4 mps 660 mmHg 61%
    05:00 +7°C° 0 mm 4 mps 660 mmHg 61%
    06:00 +7°C° 0 mm 4 mps 661 mmHg 58%
    07:00 +6°C° 0 mm 4 mps 661 mmHg 56%
    08:00 +6°C° 0 mm 4 mps 662 mmHg 54%
    09:00 +7°C° 0 mm 4 mps 662 mmHg 48%
    10:00 +8°C° 0 mm 4 mps 662 mmHg 42%
    11:00 +10°C° 0 mm 3 mps 663 mmHg 36%
    12:00 +11°C° 0 mm 4 mps 663 mmHg 32%
    13:00 +12°C° 0 mm 4 mps 663 mmHg 28%
    14:00 +14°C° 0 mm 4 mps 663 mmHg 24%
    15:00 +13°C° 0 mm 4 mps 663 mmHg 25%
    16:00 +12°C° 0 mm 4 mps 663 mmHg 26%
    17:00 +11°C° 0 mm 4 mps 662 mmHg 27%
    18:00 +8°C° 0 mm 4 mps 662 mmHg 31%
    19:00 +7°C° 0 mm 3 mps 662 mmHg 35%
    20:00 +4°C° 0 mm 3 mps 662 mmHg 39%
    21:00 +4°C° 0 mm 3 mps 662 mmHg 40%
    22:00 +3°C° 0 mm 3 mps 663 mmHg 41%
    23:00 +2°C° 0 mm 3 mps 663 mmHg 42%

    26 September, Wednesday

    Time Temperature Precipitation Wind Pressure Humidity
    00:00 +2°C° 0 mm 3 mps 663 mmHg 43%
    01:00 +1°C° 0 mm 3 mps 663 mmHg 44%
    02:00 +1°C° 0 mm 3 mps 663 mmHg 45%
    03:00 +1°C° 0 mm 3 mps 663 mmHg 46%
    04:00 0°C° 0 mm 3 mps 663 mmHg 47%
    05:00 0°C° 0 mm 3 mps 663 mmHg 48%
    06:00 0°C° 0 mm 4 mps 663 mmHg 47%
    07:00 +1°C° 0 mm 4 mps 664 mmHg 45%
    08:00 +3°C° 0 mm 4 mps 664 mmHg 44%
    09:00 +3°C° 0 mm 5 mps 665 mmHg 41%
    10:00 +6°C° 0 mm 5 mps 665 mmHg 38%
    11:00 +7°C° 0 mm 6 mps 666 mmHg 35%
    12:00 +8°C° 0 mm 6 mps 665 mmHg 34%
    13:00 +8°C° 0 mm 6 mps 665 mmHg 33%
    14:00 +9°C° 0 mm 7 mps 665 mmHg 32%
    15:00 +8°C° 0 mm 7 mps 664 mmHg 33%
    16:00 +6°C° 0 mm 7 mps 664 mmHg 34%
    17:00 +6°C° 0 mm 7 mps 664 mmHg 36%
    18:00 +4°C° 0 mm 6 mps 664 mmHg 40%
    19:00 +3°C° 0 mm 6 mps 664 mmHg 45%
    20:00 +1°C° 0 mm 5 mps 664 mmHg 49%
    21:00 0°C° 0 mm 5 mps 664 mmHg 52%
    22:00 0°C° 0 mm 5 mps 663 mmHg 54%
    23:00 -1°C° 0 mm 5 mps 663 mmHg 56%

    27 September, Thursday

    Time Temperature Precipitation Wind Pressure Humidity
    00:00 -1°C° 0 mm 5 mps 663 mmHg 56%
    01:00 -2°C° 0 mm 5 mps 663 mmHg 57%
    02:00 -2°C° 0 mm 5 mps 662 mmHg 57%
    03:00 -2°C° 0 mm 5 mps 662 mmHg 57%
    04:00 -2°C° 0 mm 5 mps 662 mmHg 57%
    05:00 -3°C° 0 mm 4 mps 662 mmHg 57%
    06:00 -1°C° 0 mm 5 mps 662 mmHg 52%
    07:00 0°C° 0 mm 5 mps 662 mmHg 47%
    08:00 +1°C° 0 mm 6 mps 662 mmHg 42%
    09:00 +3°C° 0 mm 6 mps 662 mmHg 37%
    10:00 +5°C° 0 mm 6 mps 662 mmHg 32%
    11:00 +6°C° 0 mm 7 mps 663 mmHg 26%
    12:00 +8°C° 0 mm 7 mps 662 mmHg 25%
    13:00 +9°C° 0 mm 7 mps 662 mmHg 24%
    14:00 +10°C° 0 mm 7 mps 661 mmHg 23%
    15:00 +10°C° 0 mm 6 mps 661 mmHg 25%
    16:00 +9°C° 0 mm 6 mps 661 mmHg 26%
    17:00 +9°C° 0 mm 6 mps 660 mmHg 27%
    18:00 +7°C° 0 mm 5 mps 660 mmHg 31%
    19:00 +5°C° 0 mm 4 mps 659 mmHg 35%
    20:00 +3°C° 0 mm 4 mps 659 mmHg 39%
    21:00 +3°C° 0 mm 4 mps 659 mmHg 40%
    22:00 +1°C° 0 mm 4 mps 659 mmHg 41%
    23:00 +1°C° 0 mm 4 mps 658 mmHg 42%

    28 September, Friday

    Time Temperature Precipitation Wind Pressure Humidity
    00:00 +1°C° 0 mm 4 mps 658 mmHg 41%
    01:00 +1°C° 0 mm 4 mps 658 mmHg 41%
    02:00 +1°C° 0 mm 4 mps 657 mmHg 40%
    03:00 +1°C° 0 mm 4 mps 657 mmHg 39%
    04:00 +2°C° 0 mm 3 mps 657 mmHg 38%
    05:00 +2°C° 0 mm 3 mps 657 mmHg 38%
    06:00 +3°C° 0 mm 3 mps 657 mmHg 37%
    07:00 +4°C° 0 mm 3 mps 658 mmHg 37%
    08:00 +7°C° 0 mm 3 mps 658 mmHg 37%
    09:00 +9°C° 0 mm 3 mps 658 mmHg 37%
    10:00 +11°C° 0 mm 3 mps 659 mmHg 37%
    11:00 +12°C° 0 mm 3 mps 659 mmHg 37%
    12:00 +13°C° 0 mm 3 mps 659 mmHg 37%
    13:00 +14°C° 0 mm 3 mps 659 mmHg 37%
    14:00 +16°C° 0 mm 3 mps 658 mmHg 37%
    15:00 +14°C° 0 mm 3 mps 658 mmHg 39%
    16:00 +14°C° 0 mm 3 mps 658 mmHg 42%
    17:00 +14°C° 0 mm 2 mps 657 mmHg 45%
    18:00 +12°C° 0 mm 2 mps 657 mmHg 50%
    19:00 +9°C° 0 mm 2 mps 657 mmHg 56%
    20:00 +8°C° 0 mm 2 mps 656 mmHg 61%
    21:00 +7°C° 0 mm 2 mps 656 mmHg 64%
    22:00 +7°C° 0 mm 2 mps 656 mmHg 66%
    23:00 +6°C° 0 mm 2 mps 656 mmHg 69%
    Show more